Current Version              Previous Version:    01  02  03  04  05  06  07  08  09  10  11  12  13  14  15  16  17  18  19  20  21  22  23  24  25  26  27  28  29  30  
   31  32  33  34  35  36  37  38  39  40  41  42  43  44  45  46  47  48  49  50  51  52  53  54  55  56  57  58  59  60  

[Printable]
850
ASUS44 KEWX 300610
RWRTX
SOUTH TEXAS REGIONAL WEATHER ROUNDUP
NATIONAL WEATHER SERVICE AUSTIN/SAN ANTONIO TX
1200 AM CST FRI JAN 30 2015

NOTE: "FAIR" INDICATED FEW OR NO CLOUDS BELOW 12,000 FEET WITH NO
SIGNIFICANT WEATHER AND/OR OBSTRUCTIONS TO VISIBILITY.

* - THESE STATIONS ARE NOT NWS OR FAA STATIONS...AND ARE NOT SUBJECT
    TO NWS AND FAA QUALITY CONTROL.

TXZ171-172-183>190-300700-
TEXAS HILL COUNTRY AND EDWARDS PLATEAU

CITY           SKY/WX    TMP DP  RH WIND       PRES   REMARKS
JUNCTION       MOCLDY    52  34  50 NE10      30.42R
6HR MIN TEMP:  52; 6HR MAX TEMP:  65;

*LLANO         CLOUDY    54  34  47 NE12      30.46S
BURNET         CLOUDY    52  32  46 NE16G23   30.43R
6HR MIN TEMP:  52; 6HR MAX TEMP:  65; 6HR PCP: TRACE;

*HORSESHOE BAY CLOUDY    55  33  43 N5        30.42S
6HR MIN TEMP:  55; 6HR MAX TEMP:  67;

*KERRVILLE     PTCLDY    54  37  52 NE6       30.39S
6HR MIN TEMP:  54; 6HR MAX TEMP:  66;

*FREDERICKSBRG CLOUDY    53  34  48 NE12      30.40S
6HR MIN TEMP:  53; 6HR MAX TEMP:  64;

*ROCKSPRINGS   CLOUDY    54  36  50 NE12      30.40S
*BOERNE STAGE  PTCLDY    55  36  47 N6        30.39R
*CASTROVILLE   CLOUDY    62  36  37 NE20G30   30.36S
HONDO          CLOUDY    58  42  55 NE10      30.37R
6HR MIN TEMP:  53; 6HR MAX TEMP:  66;

*UVALDE        PTCLDY    57  42  55 NE8       30.35S
6HR MIN TEMP:  57; 6HR MAX TEMP:  67;

DEL RIO        MOCLDY    63  39  41 NE8       30.35R
6HR MIN TEMP:  63; 6HR MAX TEMP:  74;

LAUGHLIN AFB   CLOUDY    61  40  45 NE6       30.35R
6HR MIN TEMP:  61; 6HR MAX TEMP:  71;

CARRIZO SPRGS  MOCLDY    57  54  88 CALM      30.32R
$$

TXZ173-191>194-202-209-217>225-228-300700-
CENTRAL AND SOUTH CENTRAL TEXAS

CITY           SKY/WX    TMP DP  RH WIND       PRES   REMARKS
GEORGETOWN     CLOUDY    55  34  44 N16G23    30.41S
6HR MIN TEMP:  55; 6HR MAX TEMP:  66;

AUSTIN/BERGSTM MOCLDY    57  37  47 N20G29    30.39R
6HR MIN TEMP:  57; 6HR MAX TEMP:  69;

AUSTIN/MABRY   MOCLDY    58  34  40 N10G20    30.40R
6HR MIN TEMP:  58; 6HR MAX TEMP:  69; 6HR PCP: TRACE;

*AUSTIN/EXEC   CLOUDY    55  36  47 N17G24    30.40R
*LAGO VISTA    CLOUDY    55  34  44 N14G25    30.40S
6HR MIN TEMP:  55; 6HR MAX TEMP:  66;

SAN MARCOS     CLEAR     57  36  44 N18G29    30.38S
6HR MIN TEMP:  57; 6HR MAX TEMP:  66;

NEW BRAUNFELS  PTCLDY    59  38  45 NE13      30.35S
6HR MIN TEMP:  59; 6HR MAX TEMP:  69;

RANDOLPH AFB   MOCLDY    60  38  44 NE10      30.36R
6HR MIN TEMP:  60; 6HR MAX TEMP:  65;

PT SAN ANTONIO CLOUDY    62  40  44 NE22G28   30.33R
6HR MIN TEMP:  62; 6HR MAX TEMP:  68;

SAN ANTONIO    PTCLDY    60  39  45 N13       30.36R
6HR MIN TEMP:  60; 6HR MAX TEMP:  68;

STINSON FIELD  CLOUDY    63  39  41 NE17G28   30.33R
6HR MIN TEMP:  61; 6HR MAX TEMP:  68;

*PLEASANTON    MOCLDY    63  41  44 NE9       30.34R
6HR MIN TEMP:  58; 6HR MAX TEMP:  68;

*LA GRANGE     PTCLDY    61  43  51 N9G17     30.34S
6HR MIN TEMP:  61; 6HR MAX TEMP:  67;

*GIDDINGS      PTCLDY    58  37  45 NE16G24   30.40S
6HR MIN TEMP:  58; 6HR MAX TEMP:  69;

*GONZALES      NOT AVBL
$$

TXZ163>164-176>182-195>201-210>213-226-227-235-300700-
SOUTHEAST TEXAS

CITY           SKY/WX    TMP DP  RH WIND       PRES   REMARKS
COLLEGE STN    PTCLDY    55  36  48 N14G20    30.38R
6HR MIN TEMP:  55; 6HR MAX TEMP:  70;

*BRYAN         PTCLDY    53  37  53 N13G20    30.39R
6HR MIN TEMP:  53; 6HR MAX TEMP:  68;

*CALDWELL      PTCLDY    55  34  44 N10G16    30.41S
*CROCKETT      PTCLDY    55  39  54 N17G25    30.41S
*BRENHAM       PTCLDY    59  42  52 N9        30.37R
6HR MIN TEMP:  59; 6HR MAX TEMP:  71;

HUNTSVILLE     CLEAR     55  39  54 N7        30.36S
6HR MIN TEMP:  55; 6HR MAX TEMP:  71;

CONROE         MOCLDY    59  40  49 N7        30.34S
6HR MIN TEMP:  57; 6HR MAX TEMP:  68;

HOUSTON BUSH   MOCLDY    63  42  46 N8        30.32R
6HR MIN TEMP:  60; 6HR MAX TEMP:  70;

HOUSTON HOBBY  MOCLDY    65  50  58 N12       30.30S
6HR MIN TEMP:  62; 6HR MAX TEMP:  72;

*HOUSTON SW AP PTCLDY    54  50  85 N7        30.31S
6HR MIN TEMP:  51; 6HR MAX TEMP:  64;

PEARLAND       PTCLDY    65  51  60 NE9       30.31S
6HR MIN TEMP:  59; 6HR MAX TEMP:  72;

HOUSTON HOOKS  PTCLDY    62  40  44 N10       30.33S
6HR MIN TEMP:  62; 6HR MAX TEMP:  73;

ELLINGTON FLD  MOCLDY    66  48  52 N13       30.31R
SUGAR LAND     PTCLDY    63  49  60 N10       30.30S
6HR MIN TEMP:  57; 6HR MAX TEMP:  71;

*HOUSTON EXEC  CLOUDY    59  43  55 N12       30.33S
*CLEVELAND MUN   N/A     59  45  58 N3        30.34S
*WHARTON       CLEAR     58  54  85 N7        30.32S
6HR MIN TEMP:  57; 6HR MAX TEMP:  70;

*COLUMBUS      FAIR      60  44  55 N7        30.32S
6HR MIN TEMP:  60; 6HR MAX TEMP:  68;

$$

TXZ214>216-236>238-300700-
THE UPPER TEXAS COAST

CITY           SKY/WX    TMP DP  RH WIND       PRES   REMARKS
*ORANGE        PTCLDY    60  51  73 N7        30.31S
6HR MIN TEMP:  60; 6HR MAX TEMP:  70;

PORT ARTHUR    PTCLDY    60  52  74 N10       30.30R
6HR MIN TEMP:  57; 6HR MAX TEMP:  68;

GALVESTON      PTCLDY    60  60 100 W6        30.30S
6HR MIN TEMP:  60; 6HR MAX TEMP:  65;

ANGLETON       PTCLDY    53  53 100 CALM      30.29F FOG
6HR MIN TEMP:  53; 6HR MAX TEMP:  65;

*BAY CITY      FOG       56  56 100 NW5       30.30S VSB 1/4
PALACIOS       FOG       57  56  96 NW3       30.29F VSB 1/2
6HR MIN TEMP:  56; 6HR MAX TEMP:  66;

$$

TXZ229>234-239>247-300700-
TEXAS COASTAL BEND AND RIO GRANDE PLAINS

CITY           SKY/WX    TMP DP  RH WIND       PRES   REMARKS
VICTORIA       PTCLDY    60  58  92 NW6       30.31S
6HR MIN TEMP:  57; 6HR MAX TEMP:  70;

*BEEVILLE      PTCLDY    59  59 100 N6        30.31S
6HR MIN TEMP:  58; 6HR MAX TEMP:  71;

ROCKPORT       PTCLDY    59  57  93 CALM      30.29S FOG
6HR MIN TEMP:  59; 6HR MAX TEMP:  67;

*PORT ARANSAS  CLEAR     60  60  97 E5        30.28F
6HR MIN TEMP:  60; 6HR MAX TEMP:  64;

*PORT LAVACA   CLEAR     56  56  99 CALM      30.30F FOG
6HR MIN TEMP:  56; 6HR MAX TEMP:  66;

*INGLESIDE       N/A     57  56  97 CALM      30.28F FOG
CORPUS CHRISTI MOCLDY    59  58  96 E6        30.29S
6HR MIN TEMP:  59; 6HR MAX TEMP:  68;

CORPUS NAS     PTCLDY    59  59 100 E6        30.28F
6HR MIN TEMP:  59; 6HR MAX TEMP:  66;

*ROBSTOWN      NOT AVBL
ALICE          FOG       58  56  93 CALM      30.29S VSB 1/4
6HR MIN TEMP:  58; 6HR MAX TEMP:  72;

KINGSVILLE NAS MOCLDY    59  59 100 CALM      30.29S
6HR MIN TEMP:  59; 6HR MAX TEMP:  70;

COTULLA        CLOUDY    64  58  80 E8        30.32S
6HR MIN TEMP:  62; 6HR MAX TEMP:  74;

*FAITH RANCH   CLOUDY    63  55  77 NE9       30.31R
LAREDO         PTCLDY    63  59  87 E8        30.30F
6HR MIN TEMP:  63; 6HR MAX TEMP:  75;

$$

TXZ248>255-300700-
DEEP SOUTH TEXAS

CITY           SKY/WX    TMP DP  RH WIND       PRES   REMARKS
BROWNSVILLE    CLEAR     61  60  97 NE6       30.27R
6HR MIN TEMP:  61; 6HR MAX TEMP:  71;

PORT ISABEL    CLEAR     64  62  93 E6        30.26S
6HR MIN TEMP:  63; 6HR MAX TEMP:  68;

*SOUTH PADRE   CLEAR     63  63 100 CALM      30.26F
HARLINGEN      PTCLDY    60  59  96 E7        30.26S
6HR MIN TEMP:  60; 6HR MAX TEMP:  72;